Hourly Data Report for July 24, 2021

WINDSOR A
ONTARIO
Current Station Operator: NAVCAN

42°16'34.000" N
82°57'19.000" W
189.60 m
6139530
71538
YQG

Download Data

Hourly Data (July 2021)
Hourly Data Report for July 24, 2021
TIME
LST
Temp Definition
°C
Dew Point Definition
°C
Rel Hum Definition
%
Precip. Amount Definition
mm

Wind Dir Definition
10's deg

Wind Spd Definition
km/h
Visibility Definition
km
Stn Press Definition
kPa
Hmdx Definition


Wind Chill Definition


Weather Definition


00:00 18.9 17.6 92 0.0 14 5 16.1 99.58     LegendNANA
01:00 18.0 17.4 96 0.0 14 5 16.1 99.51     LegendNANA
02:00 19.9 18.9 94 0.0 15 11 16.1 99.45     LegendNANA
03:00 19.9 18.9 94 0.0 15 4 16.1 99.43     LegendNANA
04:00 20.1 19.1 94 0.0 18 9 16.1 99.39 27   LegendNANA
05:00 20.3 19.5 95 0.0 18 11 16.1 99.34 27   LegendNANA
06:00 20.5 19.9 96 0.0 17 8 16.1 99.32 28   LegendNANA
07:00 21.3 20.1 93 0.0 20 13 16.1 99.29 29   LegendNANA
08:00 21.7 20.9 95 0.0 19 17 11.3 99.29 30   LegendNANA
09:00 22.3 21.5 95 0.0 20 17 12.9 99.28 31   LegendNANA
10:00 24.3 21.7 85 0.0 21 30 16.1 99.24 33   LegendNANA
11:00 24.9 22.1 84 0.0 21 22 12.9 99.20 34   LegendNANA
12:00 27.6 23.8 80 0.0 21 24 16.1 99.12 39   LegendNANA
13:00 27.5 24.0 81 0.0 19 24 14.5 99.03 39   LegendNANA
14:00 28.1 23.3 75 0.0 21 30 16.1 98.95 39   LegendNANA
15:00 27.7 23.1 76 0.0 21 24 16.1 98.87 38   LegendNANA
16:00 28.3 22.7 71 0.0 22 34 16.1 98.79 38   LegendNANA
17:00 27.8 22.9 74 0.0 21 28 16.1 98.75 38   LegendNANA
18:00 28.3 22.8 72 0.0 20 28 16.1 98.68 38   LegendNANA
19:00 26.8 22.3 76 0.0 20 30 16.1 98.56 36   LegendNANA
20:00 24.8 22.4 86 1.5 14 11 14.5 98.75 34   Thunderstorms,Heavy Rain
21:00 22.7 21.2 91 42.9 32 13 6.4 98.72 31   Thunderstorms,Moderate Rain, Fog
22:00 21.9 21.6 98 0.2 23 11 16.1 98.76 31   LegendNANA
23:00 22.2 21.5 96 0.0 27 11 16.1 98.80 31   LegendNANA

Notes on Data Quality.

Legend

  • E = Estimated
  • M = Missing
  • NA = Not Available*
  • [empty] = Indicates an unobserved value
Date modified: